TimeCST,TemperatureF,Dew PointF,Humidity,Sea Level PressureIn,VisibilityMPH,Wind Direction,Wind SpeedMPH,Gust SpeedMPH,PrecipitationIn,Events,Conditions,WindDirDegrees,DateUTC
12:15 AM,50.0,46.4,87,30.17,10.0,North,3.5,-,N/A,,Unknown,360,2012-11-21 06:15:00
12:35 AM,48.2,44.6,87,30.17,7.0,NNW,3.5,-,N/A,,Unknown,340,2012-11-21 06:35:00
12:55 AM,50.0,46.4,87,30.17,7.0,North,4.6,-,N/A,,Unknown,350,2012-11-21 06:55:00
1:15 AM,50.0,46.4,87,30.17,7.0,NNW,3.5,-,N/A,,Unknown,340,2012-11-21 07:15:00
1:35 AM,48.2,44.6,87,30.17,7.0,North,3.5,-,N/A,,Unknown,350,2012-11-21 07:35:00
1:55 AM,48.2,44.6,87,30.18,7.0,NNW,3.5,-,N/A,,Unknown,340,2012-11-21 07:55:00
2:15 AM,48.2,44.6,87,30.19,7.0,North,4.6,-,N/A,,Unknown,350,2012-11-21 08:15:00
2:35 AM,48.2,44.6,87,30.19,7.0,North,3.5,-,N/A,,Unknown,350,2012-11-21 08:35:00
2:55 AM,46.4,44.6,93,30.19,5.0,Calm,Calm,-,N/A,,Mist,0,2012-11-21 08:55:00
3:15 AM,46.4,44.6,93,30.20,5.0,Calm,Calm,-,N/A,,Mist,0,2012-11-21 09:15:00
3:35 AM,44.6,42.8,93,30.20,4.0,Calm,Calm,-,N/A,,Mist,0,2012-11-21 09:35:00
3:55 AM,44.6,41.0,87,30.20,3.0,Calm,Calm,-,N/A,,Mist,0,2012-11-21 09:55:00
4:15 AM,44.6,41.0,87,30.21,3.0,Calm,Calm,-,N/A,,Mist,0,2012-11-21 10:15:00
4:35 AM,42.8,41.0,93,30.22,1.8,Calm,Calm,-,N/A,,Mist,0,2012-11-21 10:35:00
4:55 AM,42.8,39.2,87,30.22,1.5,Calm,Calm,-,N/A,,Mist,0,2012-11-21 10:55:00
5:15 AM,42.8,39.2,87,30.23,1.8,Calm,Calm,-,N/A,,Mist,0,2012-11-21 11:15:00
5:35 AM,41.0,39.2,93,30.23,1.8,Calm,Calm,-,N/A,,Mist,0,2012-11-21 11:35:00
5:55 AM,39.2,37.4,93,30.23,0.5,Calm,Calm,-,N/A,Fog,Fog,0,2012-11-21 11:55:00
6:15 AM,41.0,39.2,93,30.23,0.2,Calm,Calm,-,N/A,Fog,Fog,0,2012-11-21 12:15:00
6:35 AM,39.2,37.4,93,30.24,1.2,Calm,Calm,-,N/A,,Mist,0,2012-11-21 12:35:00
6:55 AM,39.2,37.4,93,30.24,0.2,Calm,Calm,-,N/A,Fog,Fog,0,2012-11-21 12:55:00
7:15 AM,39.2,37.4,93,30.25,0.2,Calm,Calm,-,N/A,Fog,Fog,0,2012-11-21 13:15:00
7:35 AM,39.2,37.4,93,30.25,0.5,Calm,Calm,-,N/A,Fog,Fog,0,2012-11-21 13:35:00
7:55 AM,42.8,39.2,87,30.25,1.0,Calm,Calm,-,N/A,,Mist,0,2012-11-21 13:55:00
8:15 AM,46.4,44.6,93,30.25,1.8,Calm,Calm,-,N/A,,Mist,0,2012-11-21 14:15:00
8:35 AM,48.2,46.4,93,30.26,2.5,Calm,Calm,-,N/A,,Mist,0,2012-11-21 14:35:00
8:55 AM,51.8,48.2,88,30.26,3.0,North,3.5,-,N/A,,Mist,360,2012-11-21 14:55:00
9:15 AM,51.8,48.2,88,30.27,4.0,NNE,4.6,-,N/A,,Mist,20,2012-11-21 15:15:00
9:35 AM,53.6,48.2,82,30.28,5.0,NNE,3.5,-,N/A,,Haze,30,2012-11-21 15:35:00
9:55 AM,55.4,48.2,77,30.28,5.0,Calm,Calm,-,N/A,,Haze,0,2012-11-21 15:55:00
10:15 AM,57.2,48.2,72,30.28,5.0,Calm,Calm,-,N/A,,Haze,0,2012-11-21 16:15:00
10:35 AM,57.2,48.2,72,30.27,4.0,Calm,Calm,-,N/A,,Haze,0,2012-11-21 16:35:00
10:55 AM,57.2,48.2,72,30.27,7.0,Calm,Calm,-,N/A,,Unknown,0,2012-11-21 16:55:00
11:15 AM,59.0,48.2,67,30.26,7.0,ENE,4.6,-,N/A,,Unknown,70,2012-11-21 17:15:00
11:35 AM,60.8,48.2,63,30.25,7.0,North,3.5,-,N/A,,Unknown,360,2012-11-21 17:35:00
11:55 AM,60.8,48.2,63,30.25,7.0,North,3.5,-,N/A,,Unknown,10,2012-11-21 17:55:00
12:15 PM,60.8,48.2,63,30.25,7.0,Calm,Calm,-,N/A,,Unknown,0,2012-11-21 18:15:00
12:35 PM,60.8,48.2,63,30.24,7.0,Calm,Calm,-,N/A,,Unknown,0,2012-11-21 18:35:00
12:55 PM,62.6,48.2,59,30.23,10.0,North,5.8,-,N/A,,Unknown,350,2012-11-21 18:55:00
1:15 PM,62.6,48.2,59,30.23,10.0,Calm,Calm,-,N/A,,Unknown,0,2012-11-21 19:15:00
1:35 PM,62.6,48.2,59,30.22,10.0,Calm,Calm,-,N/A,,Unknown,0,2012-11-21 19:35:00
1:55 PM,62.6,48.2,59,30.22,10.0,Calm,Calm,-,N/A,,Unknown,0,2012-11-21 19:55:00
2:15 PM,62.6,48.2,59,30.21,7.0,Calm,Calm,-,N/A,,Unknown,0,2012-11-21 20:15:00
2:35 PM,62.6,48.2,59,30.21,10.0,Calm,Calm,-,N/A,,Unknown,0,2012-11-21 20:35:00
2:55 PM,62.6,48.2,59,30.21,7.0,Calm,Calm,-,N/A,,Unknown,0,2012-11-21 20:55:00
3:15 PM,62.6,48.2,59,30.21,7.0,Calm,Calm,-,N/A,,Unknown,0,2012-11-21 21:15:00
3:35 PM,60.8,48.2,63,30.21,7.0,Calm,Calm,-,N/A,,Unknown,0,2012-11-21 21:35:00
3:55 PM,60.8,48.2,63,30.21,10.0,Calm,Calm,-,N/A,,Unknown,0,2012-11-21 21:55:00
4:15 PM,60.8,48.2,63,30.21,7.0,Calm,Calm,-,N/A,,Unknown,0,2012-11-21 22:15:00
4:35 PM,59.0,48.2,67,30.21,7.0,Calm,Calm,-,N/A,,Unknown,0,2012-11-21 22:35:00
4:55 PM,55.4,48.2,77,30.21,10.0,Calm,Calm,-,N/A,,Unknown,0,2012-11-21 22:55:00
5:15 PM,53.6,46.4,77,30.21,1.0,Calm,Calm,-,N/A,,Haze,0,2012-11-21 23:15:00
5:35 PM,51.8,46.4,82,30.21,7.0,Calm,Calm,-,N/A,,Unknown,0,2012-11-21 23:35:00
5:55 PM,50.0,46.4,87,30.21,7.0,Calm,Calm,-,N/A,,Unknown,0,2012-11-21 23:55:00
6:15 PM,48.2,44.6,87,30.21,7.0,Calm,Calm,-,N/A,,Unknown,0,2012-11-22 00:15:00
6:35 PM,46.4,42.8,87,30.21,7.0,Calm,Calm,-,N/A,,Unknown,0,2012-11-22 00:35:00
6:55 PM,48.2,44.6,87,30.20,5.0,Calm,Calm,-,N/A,,Mist,0,2012-11-22 00:55:00
7:15 PM,46.4,44.6,93,30.20,5.0,Calm,Calm,-,N/A,,Mist,0,2012-11-22 01:15:00
7:35 PM,46.4,42.8,87,30.20,2.5,Calm,Calm,-,N/A,,Mist,0,2012-11-22 01:35:00
7:55 PM,46.4,44.6,93,30.20,4.0,Calm,Calm,-,N/A,,Mist,0,2012-11-22 01:55:00
8:15 PM,48.2,44.6,87,30.20,5.0,Calm,Calm,-,N/A,,Mist,0,2012-11-22 02:15:00
8:35 PM,46.4,44.6,93,30.20,4.0,Calm,Calm,-,N/A,,Mist,0,2012-11-22 02:35:00
8:55 PM,44.6,42.8,93,30.20,2.5,Calm,Calm,-,N/A,,Mist,0,2012-11-22 02:55:00
9:15 PM,44.6,42.8,93,30.20,3.0,Calm,Calm,-,N/A,,Mist,0,2012-11-22 03:15:00
9:35 PM,46.4,42.8,87,30.20,3.0,Calm,Calm,-,N/A,,Mist,0,2012-11-22 03:35:00
9:55 PM,42.8,39.2,87,30.20,2.5,Calm,Calm,-,N/A,,Mist,0,2012-11-22 03:55:00
10:15 PM,42.8,39.2,87,30.20,1.8,Calm,Calm,-,N/A,,Mist,0,2012-11-22 04:15:00
10:35 PM,41.0,39.2,93,30.20,0.2,Calm,Calm,-,N/A,Fog,Fog,0,2012-11-22 04:35:00
10:55 PM,41.0,39.2,93,30.20,0.5,Calm,Calm,-,N/A,Fog,Fog,0,2012-11-22 04:55:00
11:15 PM,42.8,41.0,93,30.20,0.2,Calm,Calm,-,N/A,Fog,Fog,0,2012-11-22 05:15:00
11:35 PM,42.8,41.0,93,30.19,0.2,Calm,Calm,-,N/A,Fog,Fog,0,2012-11-22 05:35:00
11:55 PM,41.0,39.2,93,30.19,0.2,Calm,Calm,-,N/A,Fog,Fog,0,2012-11-22 05:55:00